STARLINK-1413, 45689

Orbit data source: Space-Track

STARLINK-1413, 45689 is a payload satellite owned by SpaceX/Seattle (US) in LEO that was launched on Thu, 04 Jun 2020 UTC via an FALCON 9 launch vehicle from the Air Force Eastern Test Range (AFETR). Payload-class satellites include a variety of spacecraft equipped with specific instruments for various scientific and technological missions. These include communications satellites like Starlink; space stations such as the ISS; scientific satellites like the Hubble; Earth observation satellites from companies like Planet Labs, Umbra, and HawkEye 360; GPS; miniature CubeSats for education and research; and military/defense satellites.

Loading next visibility...
Identifier
45689, 2020-035AJ
Orbit
LEO
Country
Flag of USUS
Related business
Manufacturer
SpaceX/Seattle
Mission
Partially operational Commercial Communications
Bus & Motor
STARLINK, Unknown motor
Mass
260 kg wet, ~248 kg dry
Launch date (UTC)
2020-06-04 (6 years ago)
Launch vehicle
FALCON 9
Launch site
Air Force Eastern Test Range (AFETR)
Object type
Payload
Rocket body
Debris
Shape & HBR
Box + 1 Pan, 10.1 m
Radar Cross Section
13.562 m², Large (>1 m²)

Expand to show TLE details & history
Last TLE update: 17 hours ago

TLE from 17 hours ago
0 STARLINK-1413
1 45689U 20035AJ  26145.45850755  .00040082  00000-0  12197-2 0  9995
2 45689  53.1584  52.4048 0003101 113.4200 246.7128 15.33646333330653
Epoch: 2026-05-25T11:00Z
TLE epoch observation values (Epoch: 2026-05-25T11:00:15.052Z)
Latitude
-0.00006°
Longitude
4.29603°
Altitude
466.685 km
Speed
7.634 km/s
True Right ascension
03h 29m 37s
True Declination
0° 00' 00"
Sunlit
Object was in daylight at epoch
Visualization orbit readout
Latitude
Unknown
Longitude
Unknown
Altitude
Unknown
Speed
Unknown
Apparent Right ascension
Unknown
Apparent Declination
Unknown
Sunlit
N/A
Visualization observer readout
Local Sidereal Time
13:13:56
Azimuth
Unknown
Elevation
Unknown
Doppler factor
Unknown
Orbital elements
Apogee altitude
467.323 km
Perigee altitude
463.079 km
Semi-major axis
6,843.338 km
Eccentricity
0.00031
Inclination
53.1584°
RAAN
52.4048°
Arg. of periapsis
113.42°
True anomaly
246.68017°
Mean anomaly
246.7128°
Eccentric anomaly
246.69648°
Mean motion
3.8339 °/min
Orbital period
93.9 mins
BSTAR
0.0012197
Loading maneuver chart data...
Computing Atmospheric mass density...

Documentation

Showing up to 5 results
|